DW7447 Weather Reports


time (UTC)temp
F
wind
direction
speed
knots
gust
knots
rain 1hr
in
rain 24hr
in
rain mn
in
humidity
%
barometer
mb
20260510211140 45 259 3.5 7.8 0.00 0.00 0.00 78 1012.8
20260510210639 45 245 2.6 6.1 0.00 0.00 0.00 78 1012.9
20260510210139 46 279 2.6 6.1 0.00 0.00 0.00 77 1013.1
20260510205639 46 250 1.7 6.1 0.00 0.00 0.00 77 1013.2
20260510205138 46 255 2.6 6.1 0.00 0.00 0.00 77 1013.2
20260510204638 46 251 1.7 6.1 0.00 0.00 0.00 76 1013.3
20260510204140 46 254 2.6 6.1 0.00 0.00 0.00 76 1013.4
20260510203638 47 268 2.6 7.0 0.00 0.00 0.00 76 1013.4
20260510203137 47 264 3.5 7.0 0.00 0.00 0.00 75 1013.5
20260510202638 47 278 1.7 5.2 0.00 0.00 0.00 75 1013.6
20260510202138 47 252 1.7 5.2 0.00 0.00 0.00 75 1013.6
20260510201638 47 278 2.6 5.2 0.00 0.00 0.00 74 1013.6
20260510201140 48 265 2.6 5.2 0.00 0.00 0.00 74 1013.7
20260510200638 48 261 2.6 5.2 0.00 0.00 0.00 74 1013.8
20260510200138 48 247 1.7 5.2 0.00 0.00 0.00 73 1013.8
20260510195638 49 261 2.6 5.2 0.00 0.00 0.00 73 1013.8
20260510195137 49 265 1.7 5.2 0.00 0.00 0.00 72 1013.9
20260510194638 49 293 2.6 5.2 0.00 0.00 0.00 72 1013.9
20260510193640 50 269 2.6 4.3 0.00 0.00 0.00 71 1014.0
20260510193147 50 278 1.7 4.3 0.00 0.00 0.00 70 1013.9
20260510192638 50 257 1.7 5.2 0.00 0.00 0.00 69 1014.0
20260510192138 51 275 1.7 5.2 0.00 0.00 0.00 68 1014.1
20260510191638 51 244 0.9 5.2 0.00 0.00 0.00 68 1014.1
20260510191138 51 264 1.7 5.2 0.00 0.00 0.00 66 1014.2
20260510190638 51 261 1.7 6.1 0.00 0.00 0.00 66 1014.2
20260510190138 51 224 3.5 7.0 0.00 0.00 0.00 64 1014.2
20260510185137 52 195 2.6 7.8 0.00 0.00 0.00 64 1014.4
20260510184639 52 207 3.5 9.6 0.00 0.00 0.00 64 1014.5
20260510184138 52 213 2.6 10.4 0.00 0.00 0.00 63 1014.5
20260510183637 52 210 4.3 10.4 0.00 0.00 0.00 63 1014.6
20260510183137 52 190 4.3 9.6 0.00 0.00 0.00 63 1014.6
20260510182637 53 223 5.2 9.6 0.00 0.00 0.00 62 1014.6
20260510182136 53 226 4.3 7.8 0.00 0.00 0.00 60 1014.7
20260510181637 53 217 4.3 9.6 0.00 0.00 0.00 60 1014.7
20260510181137 54 226 5.2 10.4 0.00 0.01 0.00 59 1014.8
20260510180637 54 261 4.3 10.4 0.00 0.01 0.00 58 1014.9
20260510180139 54 231 3.5 11.3 0.00 0.01 0.00 58 1014.9
20260510175637 55 223 4.3 11.3 0.00 0.01 0.00 59 1015.0
20260510175138 55 258 3.5 11.3 0.00 0.01 0.00 59 1015.1
20260510174639 55 209 6.1 11.3 0.00 0.01 0.00 58 1015.1
20260510174137 55 192 6.1 10.4 0.00 0.02 0.00 59 1015.2
20260510173639 55 219 2.6 7.8 0.00 0.02 0.00 59 1015.2
20260510173138 55 288 3.5 7.8 0.00 0.02 0.00 56 1015.2
20260510172637 55 224 2.6 7.8 0.00 0.02 0.00 57 1015.4
20260510172138 55 223 3.5 7.0 0.00 0.03 0.00 57 1015.4
20260510171638 55 230 3.5 7.0 0.00 0.03 0.00 57 1015.5
20260510171137 55 264 3.5 7.0 0.00 0.03 0.00 57 1015.5
20260510170638 55 161 2.6 6.1 0.00 0.04 0.00 56 1015.6
20260510170138 55 192 2.6 9.6 0.00 0.05 0.00 56 1015.8
20260510165638 55 240 2.6 9.6 0.00 0.05 0.00 56 1015.9
20260510164638 55 188 3.5 9.6 0.00 0.07 0.00 58 1015.9
20260510164138 54 135 2.6 7.0 0.00 0.08 0.00 57 1016.1
20260510163638 54 185 1.7 7.0 0.00 0.09 0.00 56 1016.1
20260510163137 54 203 3.5 7.0 0.00 0.09 0.00 56 1016.4
20260510162638 55 226 1.7 7.0 0.00 0.10 0.00 55 1016.6
20260510161638 55 193 3.5 7.8 0.00 0.12 0.00 54 1016.8
20260510161138 56 224 3.5 7.8 0.00 0.13 0.00 53 1016.9
20260510155638 55 259 1.7 7.8 0.00 0.15 0.00 54 1017.0
20260510155137 55 204 3.5 7.8 0.00 0.16 0.00 54 1017.2
20260510154639 55 203 2.6 6.1 0.00 0.17 0.00 54 1017.3
20260510154137 55 310 1.7 6.1 0.00 0.18 0.00 55 1017.4
20260510153639 55 0 3.5 7.0 0.00 0.19 0.00 54 1017.6
20260510153137 56 31 1.7 7.0 0.00 0.20 0.00 54 1017.5
20260510152638 57 250 0.9 6.1 0.00 0.20 0.00 51 1017.7
20260510152137 56 275 2.6 7.0 0.00 0.21 0.00 54 1017.7
20260510151638 56 258 4.3 7.0 0.00 0.23 0.00 55 1017.8
20260510151139 56 0 2.6 6.1 0.00 0.24 0.00 55 1017.9
20260510150638 56 0 1.7 7.0 0.00 0.24 0.00 55 1017.9
20260510150138 55 38 2.6 7.0 0.00 0.25 0.00 54 1018.0
20260510145637 55 42 2.6 6.1 0.00 0.27 0.00 55 1018.1
20260510144638 54 61 2.6 7.0 0.00 0.27 0.00 55 1018.4
20260510144139 54 0 3.5 7.0 0.00 0.27 0.00 56 1018.5
20260510143638 55 350 3.5 7.8 0.00 0.27 0.00 56 1018.6
20260510143137 55 14 3.5 7.8 0.00 0.27 0.00 56 1018.6
20260510142637 56 24 4.3 7.8 0.00 0.27 0.00 55 1018.7
20260510141137 54 310 0.9 7.8 0.00 0.28 0.00 54 1019.1
20260510140637 55 37 4.3 7.8 0.00 0.28 0.00 55 1019.2
20260510140137 55 130 4.3 7.8 0.00 0.28 0.00 57 1019.2
20260510135638 54 350 4.3 7.8 0.00 0.28 0.00 57 1019.4
20260510135137 53 243 1.7 6.1 0.00 0.29 0.00 52 1019.4
20260510134137 54 341 3.5 7.0 0.00 0.29 0.00 58 1019.6
20260510133638 53 42 1.7 9.6 0.00 0.29 0.00 58 1019.7
20260510133137 53 13 4.3 9.6 0.00 0.29 0.00 58 1019.8
20260510132137 53 65 3.5 11.3 0.00 0.29 0.00 56 1020.0
20260510131638 53 14 6.1 11.3 0.00 0.29 0.00 56 1020.0
20260510131138 53 134 1.7 7.0 0.00 0.29 0.00 55 1020.1
20260510130637 53 141 2.6 7.0 0.00 0.29 0.00 55 1020.2
20260510125637 52 79 1.7 7.0 0.00 0.29 0.00 53 1020.3
20260510125137 53 21 3.5 9.6 0.00 0.29 0.00 56 1020.4
20260510124637 53 38 5.2 9.6 0.00 0.29 0.00 61 1020.4
20260510124137 53 37 1.7 9.6 0.00 0.29 0.00 56 1020.5
20260510123637 54 0 3.5 12.2 0.00 0.29 0.00 59 1020.6
20260510123137 54 47 6.1 12.2 0.00 0.29 0.00 63 1020.8
20260510122637 53 0 2.6 9.6 0.00 0.29 0.00 61 1020.7
20260510122138 53 337 5.2 9.6 0.00 0.29 0.00 60 1020.7
20260510121637 53 1 4.3 9.6 0.00 0.29 0.00 61 1020.8
20260510121137 53 0 3.5 9.6 0.00 0.29 0.00 63 1020.7
20260510120637 52 341 3.5 10.4 0.00 0.29 0.00 61 1020.9
20260510120138 53 24 6.1 10.4 0.00 0.29 0.00 64 1020.9
20260510115637 52 0 5.2 11.3 0.00 0.29 0.00 66 1021.0
20260510115138 53 18 5.2 11.3 0.00 0.29 0.00 64 1021.0
20260510114138 52 337 5.2 10.4 0.00 0.29 0.00 67 1021.1
20260510113638 52 25 4.3 9.6 0.00 0.29 0.00 66 1021.2
20260510113138 52 324 5.2 9.6 0.00 0.29 0.00 65 1021.2
20260510112137 52 18 4.3 9.6 0.00 0.29 0.00 66 1021.4
20260510110637 51 17 5.2 10.4 0.00 0.29 0.00 68 1021.5
20260510110137 51 0 7.0 11.3 0.00 0.29 0.00 67 1021.6
20260510105638 51 0 5.2 11.3 0.00 0.29 0.00 66 1021.7
20260510105138 52 16 6.1 11.3 0.00 0.29 0.00 66 1021.6
20260510104137 52 17 8.7 13.0 0.00 0.29 0.00 68 1021.8
20260510103637 51 47 5.2 12.2 0.00 0.29 0.00 66 1021.8
20260510103137 51 76 5.2 11.3 0.00 0.29 0.00 67 1021.8
20260510102637 52 61 5.2 10.4 0.00 0.29 0.00 67 1021.8
20260510101637 51 31 5.2 11.3 0.00 0.29 0.00 69 1021.9
20260510101138 49 0 4.3 11.3 0.00 0.29 0.00 72 1022.0
20260510100637 49 17 6.1 12.2 0.00 0.29 0.00 72 1022.0
20260510100137 50 0 5.2 13.0 0.00 0.29 0.00 73 1022.1
20260510095636 51 358 7.0 13.0 0.00 0.29 0.00 73 1022.2
20260510095137 51 27 6.1 10.4 0.00 0.29 0.00 71 1022.2
20260510094637 49 23 5.2 11.3 0.00 0.29 0.00 72 1022.2
20260510094136 49 37 5.2 12.2 0.00 0.29 0.00 71 1022.2
20260510093638 49 0 7.0 13.0 0.00 0.29 0.00 71 1022.3
20260510093137 49 341 7.8 13.0 0.00 0.29 0.00 71 1022.4
20260510092638 49 354 6.1 11.3 0.00 0.29 0.00 71 1022.3
20260510092147 49 47 7.8 11.3 0.00 0.29 0.00 73 1022.3
20260510091637 49 63 4.3 11.3 0.00 0.29 0.00 73 1022.2
20260510091138 49 17 6.1 13.0 0.00 0.29 0.00 72 1022.4
20260510090637 48 38 4.3 13.0 0.00 0.29 0.00 72 1022.3
20260510085137 49 0 5.2 13.0 0.00 0.29 0.00 74 1022.5
20260510084637 49 4 3.5 13.0 0.00 0.29 0.00 76 1022.5
20260510084137 48 38 5.2 13.9 0.00 0.29 0.00 76 1022.5
20260510083638 47 80 6.1 13.9 0.00 0.29 0.00 76 1022.5
20260510083137 47 355 5.2 13.9 0.00 0.29 0.00 78 1022.5
20260510082636 47 348 7.0 11.3 0.00 0.29 0.00 78 1022.6
20260510082138 47 30 5.2 13.9 0.00 0.29 0.00 76 1022.5
20260510081637 47 30 8.7 13.9 0.00 0.29 0.00 76 1022.5
20260510080636 46 10 6.1 13.9 0.00 0.29 0.00 79 1022.5
20260510080139 46 7 7.0 13.9 0.00 0.29 0.00 78 1022.5
20260510075637 46 23 7.8 14.8 0.00 0.29 0.00 79 1022.4
20260510075137 46 61 7.0 14.8 0.00 0.30 0.00 79 1022.4
20260510074637 46 18 7.0 12.2 0.00 0.30 0.00 79 1022.5
20260510074137 46 65 5.2 14.8 0.00 0.30 0.00 79 1022.5
20260510072635 45 6 7.8 16.5 0.00 0.30 0.00 79 1022.4
20260510072138 45 10 9.6 16.5 0.00 0.30 0.00 80 1022.4
20260510071636 45 6 6.1 14.8 0.00 0.30 0.00 79 1022.5
20260510071137 45 0 7.0 12.2 0.00 0.30 0.00 79 1022.5
20260510070637 45 4 7.0 15.6 0.00 0.30 0.00 80 1022.6
20260510070137 45 14 9.6 15.6 0.00 0.30 0.00 81 1022.6
20260510065637 45 18 7.8 13.0 0.00 0.30 0.00 81 1022.5
20260510065138 45 3 6.1 16.5 0.00 0.30 0.00 82 1022.5
20260510064637 45 0 9.6 16.5 0.00 0.30 0.00 82 1022.5
20260510064138 44 6 7.8 14.8 0.00 0.30 0.00 83 1022.5
20260510063636 44 31 7.0 14.8 0.00 0.30 0.00 84 1022.6
20260510063137 44 6 7.0 13.9 0.00 0.30 0.00 84 1022.6
20260510062637 43 42 3.5 12.2 0.00 0.30 0.00 84 1022.6
20260510061637 43 11 5.2 12.2 0.00 0.30 0.00 86 1022.6
20260510061137 43 27 4.3 13.9 0.00 0.30 0.00 86 1022.7
20260510060636 42 0 7.0 13.9 0.00 0.30 0.00 87 1022.6
20260510055638 42 0 5.2 11.3 0.00 0.30 0.00 93 1022.6
20260510055136 41 30 5.2 11.3 0.00 0.30 0.00 93 1022.7
20260510054137 40 31 4.3 9.6 0.00 0.30 0.00 95 1022.8
20260510053637 39 10 3.5 7.0 0.00 0.30 0.00 94 1022.8
20260510053138 39 20 2.6 5.2 0.00 0.30 0.00 94 1022.9
20260510052637 39 25 0.9 2.6 0.00 0.31 0.00 94 1022.8
20260510052137 39 59 0.9 3.5 0.00 0.31 0.00 94 1022.9
20260510051636 39 59 0.0 3.5 0.00 0.31 0.00 94 1022.9
20260510051137 39 200 0.0 2.6 0.00 0.31 0.00 93 1022.9
20260510050637 38 123 0.0 1.7 0.00 0.31 0.00 93 1023.0
20260510050137 38 123 0.0 4.3 0.00 0.31 0.00 93 1023.0
20260510045638 38 123 0.0 4.3 0.00 0.31 0.00 93 1023.0
20260510044647 38 86 0.0 2.6 0.00 0.31 0.00 92 1023.1
20260510044138 38 86 0.0 3.5 0.00 0.31 0.00 92 1022.9
20260510043638 38 117 0.9 3.5 0.00 0.31 0.00 92 1023.0
20260510043138 38 117 1.7 3.5 0.00 0.31 0.00 91 1023.0
20260510042636 38 117 0.9 3.5 0.00 0.31 0.00 91 1023.0
20260510042137 39 117 1.7 3.5 0.00 0.31 0.00 91 1023.2
20260510041636 39 117 0.9 3.5 0.00 0.31 0.00 91 1023.1
20260510041136 39 97 0.9 3.5 0.00 0.31 0.00 91 1023.1
20260510040638 39 97 0.9 3.5 0.00 0.31 0.00 91 1023.1
20260510040138 40 55 0.9 3.5 0.00 0.31 0.00 90 1023.1
20260510035636 40 55 0.9 3.5 0.00 0.31 0.00 90 1023.2
20260510035136 40 55 0.0 2.6 0.00 0.31 0.00 90 1023.1
20260510034636 40 55 0.9 4.3 0.00 0.31 0.00 90 1023.2
20260510034137 40 79 1.7 5.2 0.00 0.31 0.00 89 1023.2
20260510033636 40 38 1.7 5.2 0.00 0.31 0.00 89 1023.1
20260510033136 41 152 1.7 5.2 0.00 0.31 0.00 89 1023.2
20260510032638 41 37 2.6 5.2 0.00 0.31 0.00 89 1023.1
20260510032138 41 34 2.6 6.1 0.00 0.31 0.00 89 1023.1
20260510031137 41 25 2.6 6.1 0.00 0.31 0.00 88 1023.2
20260510030637 41 41 2.6 7.8 0.00 0.31 0.00 88 1023.2
20260510030137 41 28 3.5 9.6 0.00 0.31 0.00 88 1023.1
20260510025637 41 24 4.3 9.6 0.00 0.31 0.00 88 1023.2
20260510025137 42 25 4.3 7.8 0.00 0.31 0.00 88 1023.1
20260510024648 42 28 4.3 7.8 0.00 0.31 0.00 88 1023.1
20260510023637 42 8 4.3 7.0 0.00 0.31 0.00 88 1023.1
20260510023137 42 31 4.3 7.8 0.00 0.31 0.00 88 1023.1
20260510022637 42 35 4.3 9.6 0.00 0.31 0.00 88 1023.1
20260510022139 42 24 3.5 9.6 0.00 0.31 0.00 88 1023.1
20260510021136 42 20 3.5 9.6 0.00 0.31 0.00 87 1023.1
20260510020136 42 21 5.2 10.4 0.00 0.31 0.00 88 1023.1
20260510015637 42 24 5.2 11.3 0.00 0.31 0.00 88 1023.1
20260510015137 42 38 4.3 11.3 0.00 0.31 0.00 88 1023.2
20260510014636 42 27 4.3 12.2 0.00 0.32 0.00 88 1023.1
20260510014136 42 20 6.1 12.2 0.00 0.35 0.00 89 1023.2
20260510013637 42 30 5.2 11.3 0.00 0.35 0.00 89 1023.2
20260510013136 42 56 6.1 11.3 0.00 0.35 0.00 90 1023.2
20260510012636 43 44 3.5 9.6 0.00 0.35 0.00 90 1023.2
20260510012138 43 30 4.3 9.6 0.00 0.35 0.00 90 1023.3
20260510011636 43 0 4.3 9.6 0.00 0.35 0.00 90 1023.2
20260510011136 43 8 5.2 9.6 0.00 0.35 0.00 90 1023.3
20260510010636 43 20 3.5 11.3 0.00 0.35 0.00 91 1023.2
20260510010136 43 21 4.3 11.3 0.00 0.35 0.00 91 1023.3
20260510005636 43 7 4.3 9.6 0.00 0.35 0.00 91 1023.3
20260510005137 43 34 5.2 9.6 0.00 0.35 0.00 91 1023.4
20260510004636 43 17 5.2 9.6 0.00 0.35 0.00 91 1023.4
20260510004137 43 0 5.2 9.6 0.00 0.35 0.00 91 1023.5
20260510003637 43 8 4.3 11.3 0.00 0.35 0.00 91 1023.4
20260510003136 43 17 6.1 11.3 0.00 0.35 0.00 91 1023.4
20260510002637 43 18 5.2 9.6 0.00 0.35 0.00 92 1023.4
20260510002136 43 25 4.3 9.6 0.00 0.35 0.00 92 1023.4
20260510001136 43 20 5.2 9.6 0.00 0.35 0.00 92 1023.4
20260510000636 43 353 5.2 9.6 0.00 0.35 0.00 92 1023.6
20260509235636 43 41 4.3 7.8 0.00 0.35 0.00 92 1023.6
20260509235136 43 30 3.5 11.3 0.00 0.35 0.00 92 1023.6
20260509234636 43 25 5.2 11.3 0.00 0.35 0.00 93 1023.5
20260509234136 43 30 5.2 10.4 0.00 0.35 0.00 93 1023.6
20260509233636 43 18 5.2 10.4 0.00 0.35 0.00 93 1023.6
20260509233137 43 32 4.3 10.4 0.00 0.35 0.00 93 1023.7
20260509232637 43 3 3.5 10.4 0.00 0.35 0.00 93 1023.6
20260509232136 43 55 4.3 9.6 0.00 0.35 0.00 93 1023.5
20260509231637 43 10 5.2 9.6 0.00 0.35 0.00 93 1023.6
20260509231136 43 28 5.2 9.6 0.00 0.36 0.00 93 1023.6
20260509230636 44 17 4.3 7.8 0.00 0.36 0.00 93 1023.7
20260509230137 44 31 4.3 9.6 0.00 0.36 0.00 93 1023.6
20260509225636 44 27 4.3 10.4 0.00 0.36 0.36 93 1023.6
20260509225136 44 65 5.2 10.4 0.00 0.36 0.36 93 1023.6
20260509224636 44 38 3.5 10.4 0.00 0.36 0.36 92 1023.6
20260509224148 44 31 5.2 12.2 0.00 0.36 0.36 92 1023.5
20260509223635 44 55 5.2 12.2 0.00 0.36 0.36 92 1023.5
20260509223137 44 34 5.2 10.4 0.00 0.36 0.36 92 1023.6
20260509222637 44 38 6.1 10.4 0.00 0.36 0.36 93 1023.5
20260509222136 44 24 5.2 11.3 0.00 0.36 0.36 93 1023.6
20260509221638 44 51 6.1 13.9 0.00 0.36 0.36 93 1023.7
20260509221137 44 51 6.1 14.8 0.00 0.36 0.36 93 1023.6
20260509220136 44 25 7.8 15.6 0.00 0.36 0.36 93 1023.7
20260509215636 44 0 7.0 13.0 0.00 0.37 0.36 93 1023.8
20260509215135 44 21 6.1 12.2 0.00 0.37 0.36 93 1023.7
20260509214636 44 56 5.2 10.4 0.00 0.38 0.36 93 1023.8
20260509214138 44 65 5.2 10.4 0.00 0.39 0.36 93 1023.8
20260509213636 44 45 6.1 10.4 0.00 0.39 0.36 93 1023.8
20260509213136 44 25 5.2 11.3 0.00 0.39 0.36 93 1023.7
20260509212636 44 58 7.0 14.8 0.00 0.39 0.36 93 1023.7
20260509212136 44 55 7.8 14.8 0.00 0.39 0.36 94 1023.8
20260509211635 45 32 7.0 13.0 0.00 0.39 0.36 94 1023.7